Regional Weather Roundup
Issued by NWS Sterling, VA

Home | Current Version | Previous Version | Text Only | Print | Product List | Glossary Off
Versions: 1 2 3 4 5 6 7 8 9 10 11 12 13 14 15 16 17 18 19 20 21 22 23 24 25 26 27 28 29 30 31 32 33 34 35 36 37 38 39 40 41 42 43 44 45 46 47 48 49 50

000
ASUS41 KLWX 010910
RWRLWX

REGIONAL WEATHER ROUNDUP
NATIONAL WEATHER SERVICE BALTIMORE MD/WASHINGTON DC
500 AM EDT WED OCT 01 2014

Note: "FAIR" indicates few or no clouds below 12,000 feet
with no significant weather and/or obstructions to visibility.
 TC=TEMPERATURE CELSIUS

 * =Non NWS site. Station does not report precipitation (e.g. rain,
    snow, etc.), thunder, or fog.

DCZ001-MDZ009-015-VAZ040>042-051-053>054-011000-
WASHINGTON METRO

CITY           SKY/WX    TMP DP  RH WIND       PRES   REMARKS
WASHINGTON NAT CLOUDY    67  61  81 NE8       29.96S
DULLES         LGT RAIN  63  62  97 E5        29.96S FOG
ANDREWS AFB    CLOUDY    63  63  99 NE6       29.95S
QUANTICO       CLOUDY    65  63  93 N8        29.96S
COLLEGE PARK*  MOCLDY    64  63  94 CALM      29.96R
LEESBURG*      LGT RAIN  63  63 100 CALM      29.98R
MANASSAS*      CLOUDY    64  63  94 CALM      29.96R
GAITHERSBURG*  CLOUDY    63  61  94 E3        30.00S

$$

MDZ006>007-011-014-011000-
BALTIMORE METRO

CITY           SKY/WX    TMP DP  RH WIND       PRES   REMARKS
BWI AIRPORT    PTCLDY    63  60  90 NE5       29.96S
MD SCIENCE CTR   N/A     64  60  87 MISG      29.96F
MARTIN STATE   PTCLDY    63  63 100 CALM      29.98S
ANNAPOLIS      PTCLDY    65  61  87 NE5       29.96S
FORT MEADE*    PTCLDY    61  59  94 CALM      29.99R

$$

MDZ012-015-019>023-011000-
MARYLAND EASTERN SHORE

CITY           SKY/WX    TMP DP  RH WIND       PRES   REMARKS
OCEAN CITY     PTCLDY   N/A N/A N/A NW6       29.93R HAZE
SALISBURY      CLEAR     63  60  90 N6        29.94R
BAY BRIDGE AP*   N/A     63  61  94 NE6       29.96S
CAMBRIDGE*     CLOUDY    63  61  94 N5        29.94S
EASTON*        PTCLDY    62  62 100 NE3       29.99S

$$

MDZ017>025-011000-
SOUTHERN MARYLAND

CITY           SKY/WX    TMP DP  RH WIND       PRES   REMARKS
PATUXENT RIVER PTCLDY    64  61  90 NE6       29.94S
ST INIGOES     PTCLDY    63  60  90 NE5       29.94R
LEONARDTOWN*   MOCLDY    63  61  94 CALM      29.96S

$$

MDZ003>005-011000-
NORTH CENTRAL MARYLAND

CITY           SKY/WX    TMP DP  RH WIND       PRES   REMARKS
FREDERICK*     DRIZZLE   63  61  94 N6        30.00S
HAGERSTOWN APT CLOUDY    61  58  90 N3        29.97S
WESTMINSTER*   CLOUDY    61  59  94 CALM      29.98S

$$

MDZ501>502-011000-
WESTERN MARYLAND

CITY           SKY/WX    TMP DP  RH WIND       PRES   REMARKS
OAKLAND*       PTCLDY    52 N/A N/A S8        29.99S
CUMBERLAND*    CLOUDY    61  59  94 CALM      30.01S

$$

VAZ025>031-011000-
SHENANDOAH VALLEY

CITY           SKY/WX    TMP DP  RH WIND       PRES   REMARKS
WINCHESTER*    RAIN      61  61 100 CALM      29.97S
STAUNTON*      CLOUDY    62  58  86 NE3       29.99R

$$

WVZ021-048>050-054>055-011000-
EASTERN WEST VIRGINIA PANHANDLE

CITY           SKY/WX    TMP DP  RH WIND       PRES   REMARKS
MARTINSBURG    CLOUDY    62  58  86 CALM      29.98R FOG
PETERSBURG*    FOG      N/A N/A N/A CALM      29.98S VSB 1/2

$$

VAZ036>039-050-011000-
CENTRAL FOOTHILLS

CITY           SKY/WX    TMP DP  RH WIND       PRES   REMARKS
CHARLOTTESVILL CLOUDY    63  61  93 CALM      29.95S FOG
ORANGE*        FOG       61  59  94 CALM      29.97R VSB 1/4

$$

VAZ055>057-011000-
NORTH AND CENTRAL PIEDMONT

CITY           SKY/WX    TMP DP  RH WIND       PRES   REMARKS
FREDERICKSBRG* MOCLDY    62  62 100 CALM      29.94S FOG
STAFFORD*      MOCLDY    61  61 100 CALM      29.99R FOG

$$

NCZ024-NYZ072-PAZ021-071-VAZ022-071-011000-
OTHER REGIONAL OBSERVATIONS

CITY           SKY/WX    TMP DP  RH WIND       PRES   REMARKS
NEW YORK CITY  CLOUDY    63  55  75 VRB7      30.02R
PHILADELPHIA   MOCLDY    64  58  80 NE9       29.97F
PITTSBURGH     CLOUDY    57  56  96 N3        29.97R FOG
ROANOKE        MOCLDY    58  55  90 CALM      29.99R
RICHMOND       PTCLDY    61  58  90 N3        29.94R FOG
RALEIGH        PTCLDY    57  55  93 CALM      29.95R FOG

$$

ANZ530>537-011000-
MARINE OBSERVATIONS

STATION/POSITION TIME  TEMP    WIND        PRES
                       AIR SEA DIR/SP/G
                 (UTC) (F)     (DEG/KT/KT) (MB)
THOMAS PT LIGHT  0900   64 72   50/ 11/ 12 1015.3F
BALT KEY BRIDGE  0900   64      30/  7/  8 1014.4F
COVE POINT       0900   65      60/  8/ 10 1013.9S
LEWISETTA        0900   68 72   60/  8/ 10 1013.4R
SOLOMONS ISLAND  0900      72                N/A
PINEY POINT      0900           70/  5/  6   N/A

$$




USA.gov is the U.S. government's official web portal to all federal, state and local government web resources and services.